RH
54 63 78 81 73 68 64 59 55 51 49 48 46 51 61 65 61 58 56 55 52 48 55 72 77 76 80 80 80 85 89 91 91 88 88 87 86 88 90 92 96 99
52 54 60 63 62 61 58 54 52 51 50 48 45 51 61 63 58 56 55 52 50 53 63 79 86 87 88 87 87 88 88 94 97 95 96 94 89 89 89 90 96 100
48 49 51 54 54 56 54 52 51 49 47 50 51 55 59 58 55 55 54 52 60 72 83 90 93 92 93 91 91 90 89 94 99 98 98 94 89 89 89 90 97 100
52 53 54 54 51 50 48 47 47 44 46 54 57 56 55 55 60 63 63 68 78 84 86 93 98 95 93 92 92 93 93 94 97 98 99 96 91 90 88 90 97 100
56 53 49 45 44 44 44 47 50 50 52 56 56 55 58 63 70 74 74 75 77 79 83 93 101 99 97 95 93 95 97 98 98 97 99 100 96 91 89 92 98 100
54 49 44 43 47 50 50 53 56 55 54 53 52 53 57 61 65 67 67 63 64 79 93 96 96 98 100 98 97 98 100 100 99 96 96 96 94 91 92 97 101 99
52 48 44 47 54 55 52 51 50 50 48 46 46 49 53 58 60 60 58 54 60 81 95 93 92 96 99 99 100 100 100 100 99 95 92 91 92 94 96 99 100 100
52 49 46 48 53 51 48 47 45 46 47 47 49 52 57 63 65 61 57 56 66 83 93 95 94 95 97 99 100 100 99 101 99 96 95 94 95 98 99 100 100 100
51 49 46 46 46 46 45 46 45 46 49 51 53 57 63 70 71 69 68 69 78 90 95 94 89 85 87 93 98 101 100 99 99 98 98 98 98 98 97 99 100 99
49 47 46 46 45 45 45 45 45 47 51 55 58 63 70 76 78 78 79 81 87 91 88 82 77 74 75 77 85 97 102 100 99 99 98 98 96 95 94 97 100 100
48 45 45 45 45 46 46 45 47 50 54 60 64 69 73 76 78 80 84 86 87 83 76 69 66 69 74 71 70 83 94 99 101 99 97 96 93 93 93 94 97 98
47 46 46 47 48 49 49 50 52 54 58 63 66 71 74 76 77 81 84 85 85 82 75 69 63 65 73 71 65 71 80 87 96 100 98 96 93 90 89 90 92 93
48 48 49 51 52 53 54 56 59 61 63 66 69 73 75 77 79 81 84 84 86 85 80 73 67 64 68 69 65 67 70 72 79 86 88 87 84 80 79 83 87 89
52 54 55 56 57 59 60 61 63 65 67 69 73 75 77 79 81 82 84 84 86 88 85 82 79 72 69 73 69 64 64 65 66 69 71 71 67 64 66 74 82 88
58 60 61 62 62 62 63 65 66 68 70 73 76 79 81 83 84 84 86 87 87 88 88 89 91 86 80 82 82 72 67 68 68 69 71 70 65 62 64 69 78 86
64 66 66 66 67 68 69 70 71 72 75 78 81 84 85 86 88 89 90 90 91 92 93 93 95 93 87 87 92 90 86 86 86 84 81 79 75 73 74 75 78 85
69 71 72 73 74 75 75 76 78 79 81 84 86 89 89 90 92 93 93 94 96 97 99 99 98 96 94 93 97 99 98 99 99 97 94 91 87 84 82 81 83 86
74 76 78 79 81 82 82 83 85 87 89 91 93 92 93 94 96 97 97 98 101 100 100 100 100 99 99 99 100 100 100 100 100 99 99 98 96 92 89 87 88 91
78 80 82 84 86 87 89 90 92 94 95 96 97 96 97 99 100 100 100 100 101 101 99 99 98 99 100 100 100 100 100 100 99 98 100 100 99 97 95 93 93 94
82 85 86 88 90 92 95 96 96 97 97 97 98 98 100 101 100 100 100 99 99 100 100 99 97 98 100 100 100 100 100 99 99 99 100 100 100 99 98 97 97 96
85 88 89 92 95 96 98 99 98 98 98 98 98 98 99 100 99 99 99 98 99 100 100 100 99 98 100 100 100 100 100 100 100 100 100 100 100 100 100 99 99 97
89 92 94 96 98 98 100 100 99 100 99 98 99 99 99 100 99 100 101 100 101 101 100 100 99 99 100 100 99 100 100 100 100 99 100 100 99 100 100 99 100 99
94 96 99 100 100 100 101 100 100 101 100 100 101 100 100 100 100 100 100 100 101 100 100 101 99 97 100 100 99 100 99 100 100 99 99 100 100 100 100 100 100 100
97 99 101 102 102 101 101 101 101 101 101 101 101 100 100 101 101 101 100 100 100 100 100 100 94 90 96 101 99 98 98 99 100 100 100 99 99 100 100 99 100 100
98 100 101 101 102 102 101 101 101 101 101 101 101 101 101 101 100 101 100 96 95 98 100 96 87 83 92 100 99 96 96 96 96 98 100 100 99 99 99 98 98 98
99 100 100 101 102 102 101 100 100 101 101 101 101 101 101 101 100 100 99 94 90 92 98 94 83 80 89 98 101 98 93 90 90 92 95 97 99 99 99 99 98 97
Wind_Speed
32 31 29 26 22 21 21 23 26 27 28 27 28 30 26 23 24 26 29 32 34 35 34 33 32 33 33 32 31 30 28 27 26 27 27 26 25 25 24 24 25 26
33 32 32 29 26 25 27 29 30 29 29 29 31 31 27 26 27 29 32 35 35 33 32 32 32 32 33 32 31 30 30 28 26 26 27 26 26 25 25 24 25 27
37 35 33 32 29 29 29 29 28 28 29 30 29 26 25 27 30 32 34 32 30 29 30 31 32 32 32 32 31 30 30 29 27 26 26 26 26 25 24 24 25 26
32 28 26 28 29 31 31 30 30 30 30 27 25 25 27 28 30 31 30 26 26 27 29 30 31 31 32 31 30 30 29 29 28 25 24 25 25 24 23 22 23 26
24 24 27 31 33 34 33 31 30 28 26 24 25 26 25 24 25 25 23 23 25 27 29 29 27 28 29 30 29 28 28 28 26 24 23 24 25 24 24 22 22 25
22 27 32 34 33 30 28 25 24 23 23 24 25 25 23 24 25 25 24 25 26 26 27 27 25 24 26 27 28 27 26 26 25 23 23 25 25 25 24 22 22 23
23 28 31 30 27 24 24 23 23 24 26 28 28 26 25 25 25 25 28 28 27 25 25 26 25 22 23 26 26 25 25 25 25 25 25 25 25 24 23 22 22 22
25 27 28 26 24 24 25 25 26 27 27 28 28 26 24 24 24 26 28 28 26 25 24 23 21 19 18 21 24 24 23 23 24 25 25 24 23 23 22 21 21 21
27 26 26 26 25 26 26 27 28 28 27 27 27 25 25 25 26 26 26 25 23 21 19 18 19 20 19 17 18 20 21 21 22 23 24 24 23 23 22 21 20 21
26 25 25 25 25 25 25 26 27 27 27 27 26 25 24 24 24 22 21 19 18 18 20 22 24 25 22 20 18 15 17 19 21 22 23 23 23 23 22 22 21 21
24 24 24 24 25 25 25 25 25 24 24 24 23 22 22 22 22 19 17 17 18 21 25 27 28 26 24 23 21 16 14 15 18 20 21 21 21 21 21 21 22 22
24 24 24 24 25 25 25 24 23 23 23 22 22 22 22 22 21 19 19 20 22 24 26 27 28 27 25 25 24 20 16 14 15 16 17 18 18 18 19 21 22 23
24 24 24 24 24 24 24 24 23 23 23 24 24 23 24 23 23 23 23 24 24 24 25 27 28 28 27 26 25 22 19 17 15 15 15 16 17 17 19 21 23 23
24 24 24 24 24 24 24 23 23 23 23 24 24 24 25 25 25 25 26 26 26 25 26 27 26 27 27 25 25 23 21 19 17 16 16 17 18 19 20 22 23 24
24 24 24 24 24 24 23 23 23 23 23 23 24 25 25 25 26 26 26 27 27 27 27 26 25 26 26 24 23 23 22 20 19 18 18 18 20 21 22 23 24 25
24 24 24 24 24 24 24 23 23 23 23 23 24 25 26 26 26 25 26 27 27 27 26 26 25 26 26 24 23 22 22 21 20 20 19 20 22 23 23 24 25 25
24 24 24 24 25 24 24 24 24 23 24 24 25 26 26 25 25 25 26 26 24 24 24 24 24 24 23 24 23 23 23 23 22 22 21 21 23 24 25 25 25 25
25 25 25 25 25 24 24 24 24 24 24 24 25 25 25 26 25 24 25 24 22 23 23 23 24 23 22 23 23 23 23 23 23 23 22 23 24 25 26 26 25 25
26 26 26 26 26 25 25 24 24 24 24 23 23 24 24 25 25 24 24 24 23 24 24 25 24 23 22 22 23 23 23 24 25 25 24 24 25 26 26 26 25 24
26 26 26 26 26 25 25 24 23 24 23 22 23 23 23 24 25 25 25 26 25 25 25 25 24 22 20 21 21 21 22 24 25 26 26 25 26 26 27 26 26 25
27 28 27 27 26 25 25 24 24 24 25 24 23 23 24 25 26 26 27 27 26 24 23 24 23 20 19 19 20 21 23 25 26 27 27 27 26 26 26 26 26 25
28 28 27 26 27 26 25 25 24 24 25 25 24 24 25 25 25 26 26 26 25 22 21 22 21 20 17 17 19 19 18 21 25 27 26 25 24 24 25 26 26 25
28 27 27 27 27 26 26 26 25 25 26 25 25 26 26 25 25 26 25 25 24 22 18 19 21 21 17 16 16 15 11 10 15 18 18 17 18 20 22 23 25 26
28 28 28 28 28 27 26 26 26 26 28 28 26 25 26 26 25 25 25 23 22 19 16 16 20 20 17 14 13 10 7 5 6 8 10 13 14 15 17 19 21 23
29 29 29 29 29 29 30 30 30 30 30 29 26 24 26 26 24 23 23 22 21 18 15 15 19 19 16 12 10 8 5 3 3 4 8 11 14 15 17 18 19 21
30 30 30 30 30 30 32 33 33 32 30 28 27 26 26 25 22 21 21 21 21 19 16 17 19 18 15 12 10 7 5 4 3 3 5 7 10 12 15 17 19 22
Wind_Direction
307 304 297 292 292 293 296 301 300 298 296 296 297 294 284 280 288 293 293 293 293 290 288 284 280 277 276 277 278 276 272 269 267 266 262 256 255 255 254 253 249 245
309 306 303 301 300 298 300 301 299 296 295 294 292 287 281 284 291 293 294 293 290 287 286 283 279 275 273 274 274 274 272 269 264 262 258 254 254 254 251 250 247 242
305 302 302 303 303 302 303 302 300 299 297 294 289 286 288 292 295 295 293 290 286 285 286 285 279 273 271 271 271 271 269 266 262 259 257 255 254 253 250 248 246 241
301 302 305 309 309 308 307 303 301 299 294 290 291 295 296 297 298 296 291 287 286 287 289 287 280 271 268 269 269 268 266 264 261 258 255 255 254 252 249 246 244 241
305 312 315 313 309 304 301 299 299 297 292 291 295 297 296 297 300 298 294 293 293 291 293 294 285 271 266 267 266 265 263 261 261 258 254 253 253 252 250 244 239 238
314 316 315 311 305 301 300 302 306 306 304 305 304 302 299 297 297 296 296 299 297 292 293 298 295 280 270 268 264 261 259 258 258 258 254 254 254 252 249 242 236 234
314 314 312 307 304 308 310 311 311 311 310 309 306 303 299 294 291 292 294 295 293 292 292 296 298 289 275 268 264 260 259 257 255 255 253 253 252 249 246 241 235 233
312 311 308 304 306 313 313 311 309 308 308 306 302 299 296 292 289 291 293 294 291 288 290 294 300 302 289 273 264 259 259 258 254 251 248 246 246 245 244 241 236 234
310 308 306 304 305 307 308 308 308 308 307 303 299 297 295 294 293 294 295 294 289 287 294 302 307 311 310 299 280 263 256 256 254 249 245 242 240 242 244 242 237 235
309 308 306 305 304 304 305 306 305 304 303 300 297 296 297 300 300 299 296 293 292 297 306 308 306 307 309 309 305 287 264 255 250 246 244 243 242 245 247 245 239 235
311 311 309 308 306 305 305 305 304 303 300 299 300 300 302 304 303 300 298 299 303 304 305 303 302 303 302 301 302 302 289 269 255 247 245 246 247 249 250 249 246 242
315 314 312 310 308 306 307 306 305 304 302 302 303 302 302 303 301 299 299 301 301 301 299 297 296 295 295 296 295 294 292 284 270 258 252 250 250 252 254 254 251 250
317 316 314 312 309 308 308 306 305 304 303 302 301 300 300 299 297 296 296 298 297 295 295 293 291 288 287 288 289 288 285 282 277 268 261 258 256 257 259 258 254 252
319 318 316 314 312 310 309 308 307 305 303 302 300 300 299 297 296 295 295 295 294 292 291 289 286 283 281 280 281 282 280 277 274 269 263 261 260 261 261 260 257 252
321 319 317 316 314 314 312 310 309 306 304 301 300 299 299 297 296 295 294 294 293 290 288 285 280 276 274 273 273 275 275 273 269 265 262 260 259 260 260 258 256 251
322 320 319 318 316 315 313 311 310 307 304 301 299 298 298 298 297 294 294 294 293 291 287 283 278 272 269 266 264 265 266 266 264 261 259 257 255 255 255 253 252 249
322 321 319 318 316 314 313 311 310 307 304 301 300 299 298 298 297 295 295 293 289 286 285 282 277 272 267 263 260 257 256 255 256 256 255 254 252 250 249 249 247 245
323 321 319 317 315 315 313 311 309 306 303 299 298 300 302 299 297 294 292 290 283 280 280 279 276 273 267 262 259 255 252 249 249 251 251 250 249 247 246 244 242 241
323 321 319 318 316 314 312 310 307 305 304 301 299 302 301 297 294 291 289 289 286 284 285 284 282 278 271 265 261 256 251 247 247 247 246 246 246 244 243 241 239 237
323 321 320 317 316 314 311 309 307 306 307 307 305 302 299 296 295 294 293 294 293 291 291 290 289 286 277 267 261 255 250 247 245 243 242 242 242 240 239 238 236 233
324 322 320 317 316 315 312 309 309 310 311 312 309 305 302 302 302 301 300 301 301 297 292 290 293 294 283 270 265 261 253 246 244 243 242 241 240 238 235 236 235 233
324 321 318 317 317 315 313 312 311 310 313 314 311 310 309 307 306 306 305 306 308 305 297 296 306 311 296 277 275 273 262 245 239 241 241 238 236 234 235 236 235 233
323 321 318 317 317 315 313 313 312 312 316 318 315 314 316 315 314 317 319 319 318 318 312 312 322 329 319 300 293 295 291 263 240 237 237 235 234 234 235 235 234 232
323 322 320 318 316 315 314 314 315 315 319 323 321 317 319 322 323 324 326 326 322 321 323 324 326 332 334 326 317 317 316 293 257 243 241 242 243 242 240 236 233 232
324 324 323 321 318 317 318 321 322 323 325 327 325 321 324 327 329 327 327 330 330 325 324 327 331 338 345 342 336 341 351 342 296 258 248 248 248 246 244 243 240 236
325 326 325 324 321 321 323 326 328 328 329 330 329 329 329 330 330 328 326 330 335 332 325 328 337 346 350 348 344 342 341 341 332 302 270 260 255 248 243 241 240 240